Location: Unspecified
(0.0000°N, 0.0000°E)
Time: 23:34:30
(UTC+00:00)

S-56A Canister/Altair - Pass Details

Date: 07 October 2020
Orbit: 633 x 2499 km, 38.9° (Epoch: 28 October)

Event Time Altitude Azimuth Distance (km) Brightness Sun altitude
Rises 06:03:17 0° 189° (S) 3,478 10.9 3.9°
Reaches altitude 10° 06:07:20 10° 160° (SSE) 2,859 10.9 4.9°
Maximum altitude 06:10:23 13° 134° (SE) 2,890 11.4 5.6°
Drops below altitude 10° 06:13:52 10° 109° (ESE) 3,415 13.0 6.5°
Sets 06:19:46 0° 84° (E) 4,889 13.7 8.0°
